Location: Az?znagar
(16.8373°N, 80.5091°E)
Time: 12:24:54
(UTC+00:00)

Meteor 1-31 Rocket - Pass Details

Date: 04 December 2021
Orbit: 519 x 544 km, 97.7° (Epoch: 27 January)

Event Time Altitude Azimuth Distance (km) Brightness Sun altitude
Rises 00:21:05 0° 348° (NNW) 2,693 6.0 -7.9°
Reaches altitude 10° 00:23:42 10° 329° (NNW) 1,804 5.0 -7.3°
Maximum altitude 00:26:24 18° 285° (WNW) 1,362 4.2 -6.7°
Drops below altitude 10° 00:29:06 10° 241° (WSW) 1,805 5.1 -6.1°
Sets 00:31:44 0° 222° (SW) 2,697 6.1 -5.5°
